Location: *
(34.6903°N, 135.5184°E)
Time: 21:34:37
(UTC+00:00)

Cosmos 1656 - Pass Details

Date: 22 September 2019
Orbit: 798 x 849 km, 71.1° (Epoch: 16 October)

Event Time Altitude Azimuth Distance (km) Brightness Sun altitude
Rises 19:17:58 0° 190° (S) 3,391 6.6 -18.8°
Reaches altitude 10° 19:20:25 10° 186° (S) 2,462 5.9 -18.3°
Maximum altitude 19:26:00 62° 107° (ESE) 954 4.2 -17.2°
Drops below altitude 10° 19:31:36 10° 28° (NNE) 2,473 6.7 -16.0°
Sets 19:34:04 0° 25° (NNE) 3,407 7.4 -15.5°
